Weather History for Holloman AFB, NM

Change the Weather History Date:

Saturday, March 9, 2013

  Actual Average Record
Temperature  
Mean Temperature 46 °F -  
Max Temperature 54 °F 64 °F 77 °F (1997)
Min Temperature 34 °F 34 °F 23 °F (2012)
Degree Days  
Heating Degree Days 19    
Moisture  
Dew Point 20 °F    
Average Humidity 34    
Maximum Humidity 54    
Minimum Humidity 22    
Precipitation  
Precipitation 0.00 in - - ()
Sea Level Pressure  
Sea Level Pressure 29.84 in    
Wind  
Wind Speed 17 mph (West)    
Max Wind Speed 24 mph    
Max Gust Speed 30 mph    
Visibility 8 miles    
Events      
Averages and records for this station are not official NWS values.
T = Trace of Precipitation, MM = Missing Value Source: NWS Daily Summary

Daily Weather History Graph

Daily Weather History Graph

Search for Another Location

Airport:

Trip Planner

Search our weather history database for the weather conditions in past years. The results will help you decide how hot, cold, wet, or windy it might be!

Date:

Astronomy

Mar. 09, 2013 Rise Set
Actual Time 6:22 AM MST 6:08 PM MST
Civil Twilight 5:57 AM MST 6:32 PM MST
Nautical Twilight 5:28 AM MST 7:01 PM MST
Astronomical Twilight 5:00 AM MST 7:30 PM MST
Moon 4:42 AM MST (3/9) 4:17 PM MST (3/9)
Length of Visible Light 12h 35m
Length of Day
11h 46m
Waning Crescent, 5% of the Moon is Illuminated
Mar 9
Waning Crescent
Mar 11
New
Mar 19
First Quarter
Mar 27
Full
Apr 2
Last Quarter

Hourly Weather History & Observations

Time (MST) Temp. Windchill Dew Point Humidity Pressure Visibility Wind Dir Wind Speed Gust Speed Precip Events Conditions
12:58 AM 52.7 °F - 32.9 °F 47% 29.73 in 10.0 mi West 19.6 mph - N/A   Scattered Clouds
1:58 AM 48.9 °F - 31.8 °F 52% 29.75 in 10.0 mi West 20.7 mph - N/A   Clear
2:18 AM 48.2 °F - 32.0 °F 54% 29.88 in 10.0 mi West 17.3 mph - N/A   Light Drizzle
2:32 AM 48.2 °F - 32.0 °F 54% 29.87 in 10.0 mi West 15.0 mph - N/A   Clear
2:58 AM 47.7 °F - 30.6 °F 52% 29.75 in 10.0 mi West 21.9 mph 27.6 mph 0.00 in   Partly Cloudy
3:58 AM 46.0 °F 38.8 °F 27.7 °F 49% 29.79 in 10.0 mi West 18.4 mph 28.8 mph N/A   Clear
4:58 AM 45.0 °F 38.2 °F 24.4 °F 45% 29.79 in 10.0 mi West 15.0 mph - N/A   Scattered Clouds
5:58 AM 42.6 °F 35.6 °F 22.5 °F 45% 29.80 in 10.0 mi West 13.8 mph 23.0 mph N/A   Clear
6:58 AM 42.3 °F 35.5 °F 19.6 °F 40% 29.80 in 10.0 mi SW 12.7 mph - N/A   Clear
7:58 AM 45.7 °F 39.5 °F 19.4 °F 35% 29.79 in 10.0 mi West 13.8 mph 20.7 mph N/A   Clear
8:58 AM 47.7 °F - 17.8 °F 30% 29.80 in 10.0 mi West 20.7 mph 27.6 mph N/A   Clear
9:50 AM 50.0 °F - 17.6 °F 28% 29.91 in 10.0 mi West 12.7 mph 23.0 mph N/A   Clear
9:58 AM 49.8 °F - 18.1 °F 29% 29.79 in 9.0 mi West 13.8 mph 23.0 mph N/A   Clear
9:59 AM 50.0 °F - 17.6 °F 28% 29.91 in 8.0 mi WSW 12.7 mph 23.0 mph N/A   Clear
10:00 AM 50.0 °F - 17.6 °F 28% 29.92 in 8.0 mi WSW 15.0 mph 25.3 mph N/A   Clear
10:20 AM 50.0 °F - 17.6 °F 28% 29.90 in 3.0 mi WSW 23.0 mph 27.6 mph N/A   Haze
10:25 AM 50.0 °F - 17.6 °F 28% 29.91 in 2.5 mi WSW 21.9 mph 27.6 mph N/A   Haze
10:35 AM 50.0 °F - 17.6 °F 28% 29.90 in 1.8 mi WSW 21.9 mph - N/A   Haze
10:50 AM 50.0 °F - 15.8 °F 26% 29.90 in 1.2 mi WSW 19.6 mph 26.5 mph N/A   Haze
10:58 AM 51.1 °F - 15.8 °F 25% 29.79 in 1.2 mi WSW 21.9 mph 28.8 mph N/A   Haze
11:23 AM 51.8 °F - 15.8 °F 24% 29.89 in 2.0 mi WSW 21.9 mph - N/A   Haze
11:28 AM 51.8 °F - 15.8 °F 24% 29.89 in 3.0 mi WSW 24.2 mph 28.8 mph N/A   Haze
11:38 AM 53.6 °F - 15.8 °F 22% 29.89 in 2.5 mi West 20.7 mph 28.8 mph N/A   Haze
11:48 AM 53.6 °F - 15.8 °F 22% 29.89 in 3.0 mi West 23.0 mph 29.9 mph N/A   Haze
11:53 AM 53.6 °F - 15.8 °F 22% 29.89 in 5.0 mi West 23.0 mph 27.6 mph N/A   Haze
11:58 AM 53.1 °F - 16.2 °F 23% 29.78 in 5.0 mi West 18.4 mph 26.5 mph N/A   Haze
12:58 PM 54.5 °F - 18.1 °F 24% 29.74 in 9.0 mi WSW 17.3 mph 26.5 mph N/A   Partly Cloudy
1:35 PM 53.6 °F - 17.6 °F 24% 29.84 in 10.0 mi West 17.3 mph 26.5 mph N/A   Partly Cloudy
1:46 PM 53.6 °F - 17.6 °F 24% 29.84 in 9.0 mi West 12.7 mph 20.7 mph N/A   Clear
1:58 PM 52.5 °F - 18.9 °F 27% 29.75 in 10.0 mi West 13.8 mph 19.6 mph N/A   Clear
2:06 PM 51.8 °F - 19.4 °F 28% 29.84 in 10.0 mi WSW 12.7 mph 23.0 mph N/A   Clear
2:30 PM 51.8 °F - 19.4 °F 28% 29.83 in 10.0 mi West 20.7 mph 26.5 mph N/A   Clear
2:58 PM 53.2 °F - 19.4 °F 27% 29.73 in 10.0 mi WSW 16.1 mph - N/A   Clear
3:58 PM 52.7 °F - 19.0 °F 27% 29.75 in 10.0 mi WSW 21.9 mph 28.8 mph N/A   Clear
4:58 PM 52.3 °F - 18.7 °F 27% 29.78 in 10.0 mi WSW 19.6 mph - N/A   Clear
5:58 PM 50.2 °F - 19.4 °F 30% 29.81 in 8.0 mi WSW 16.1 mph - N/A   Partly Cloudy
6:58 PM 48.7 °F - 21.7 °F 35% 29.85 in 10.0 mi WSW 13.8 mph - N/A   Clear
7:58 PM 46.6 °F - 21.7 °F 37% 29.87 in 10.0 mi West 9.2 mph - N/A   Clear
8:58 PM 45.7 °F 43.4 °F 24.3 °F 43% 29.86 in 10.0 mi WNW 4.6 mph - N/A   Partly Cloudy
9:58 PM 40.6 °F 36.7 °F 22.6 °F 49% 29.88 in 10.0 mi WNW 5.8 mph - N/A   Clear
10:58 PM 38.3 °F 31.9 °F 22.1 °F 52% 29.91 in 10.0 mi North 9.2 mph - N/A   Clear
11:58 PM 34.2 °F 27.5 °F 18.7 °F 53% 29.90 in 10.0 mi NNW 8.1 mph - N/A   Clear